Aérodrome :
LOGIN :

S'inscrire | Disclaimer

   EN    FR    IT 

 










Légende :    VFR   VFR Marginal   IFR   IFR Intensif   IFR Très Intensif
Visi : 
Plafond : 
>= 8 km
>= 3000ft
5 à 8 km
1000 à 3000 ft
1500m à 5 km
500 à 1000 ft
800 à 1500m
200 à 500 ft
< 800m
< 200 ft
Symboles :   Orages  Brouillard  Fortes neiges  Fortes précipitations  Vent > 20 kt
SIGMETs :   Divers  Orages  Givrage  Turbulence  Onde Orograph.  Cendres Volcan.







- Altitude de l'aérodrome : 47 ft
- Code IATA : CBG
- Voir les cartes d'approche


EGSC - Cambridge

DERNIER METAR :
  • 191020Z 28005KT 230V330 CAVOK 05/M01 Q1023

METARs EXPIRÉS :
  • 190950Z 25004KT 220V300 CAVOK 05/M01 Q1023
  • 190920Z 23004KT 180V270 CAVOK 04/M01 Q1023
  • 190850Z 27006KT CAVOK 03/M01 Q1023
  • 190820Z 28007KT CAVOK 03/M01 Q1023
  • 190750Z 30006KT CAVOK 02/M01 Q1022

TAF TAF EGSC
Valide du 19 à 09h jusqu'au 19 à 18h UTC


190822Z 1909/1918 29006KT CAVOK
Pas de NOTAMs connus pour ce terrain.



MET'MAP, la Météo Aéronautique d'un coup d'oeil ! - Copyright ORBIFLY Décembre 2007 - Disclaimer

ORBIFLY MET'MAP TEAM :

Programmation & Développement : Alexandra Zaïnal
Conception & Développement : Baudouin d'Aumeries
Co-Programmation & Développement : Marc-Olivier Méhu
Soutien technique & logistique : Manuel Goepfert

Contact : metmap@orbifly.com




SOURCES & CREDITS :

   NOAA